Hourly Weather Rudniki

Today, 16 April, Friday

Time Temperature Precipitation Wind Pressure Humidity
00:00 -1°C° 0.1 mm 2 mps 743 mmHg 99%
01:00 -1°C° 0.1 mm 3 mps 743 mmHg 99%
02:00 0°C° 0.1 mm 3 mps 743 mmHg 99%
03:00 0°C° 0.1 mm 3 mps 743 mmHg 99%
04:00 0°C° 0.1 mm 3 mps 743 mmHg 99%
05:00 0°C° 0.1 mm 3 mps 743 mmHg 99%
06:00 0°C° 0.1 mm 3 mps 743 mmHg 99%
07:00 0°C° 0.1 mm 3 mps 743 mmHg 99%
08:00 +1°C° 0.1 mm 3 mps 743 mmHg 99%
09:00 +1°C° 0.1 mm 3 mps 743 mmHg 99%
10:00 0°C° 0.1 mm 4 mps 744 mmHg 99%
11:00 0°C° 0.1 mm 4 mps 744 mmHg 99%
12:00 0°C° 0.1 mm 4 mps 744 mmHg 99%
13:00 0°C° 0.1 mm 4 mps 744 mmHg 99%
14:00 0°C° 0.2 mm 4 mps 744 mmHg 98%
15:00 0°C° 0.2 mm 4 mps 744 mmHg 98%
16:00 +1°C° 0.2 mm 4 mps 744 mmHg 98%
17:00 +1°C° 0.1 mm 4 mps 744 mmHg 98%
18:00 +1°C° 0.1 mm 4 mps 744 mmHg 98%
19:00 +2°C° 0.1 mm 3 mps 744 mmHg 98%
20:00 +2°C° 0.7 mm 3 mps 744 mmHg 98%
21:00 +2°C° 0.7 mm 3 mps 744 mmHg 98%
22:00 +2°C° 0.7 mm 3 mps 744 mmHg 98%
23:00 +2°C° 0.6 mm 3 mps 744 mmHg 98%

Tomorrow, 17 April, Saturday

Time Temperature Precipitation Wind Pressure Humidity
00:00 +2°C° 0.6 mm 3 mps 744 mmHg 98%
01:00 +2°C° 0.6 mm 2 mps 743 mmHg 98%
02:00 +2°C° 0.1 mm 2 mps 743 mmHg 98%
03:00 +3°C° 0.1 mm 2 mps 743 mmHg 98%
04:00 +2°C° 0.1 mm 3 mps 743 mmHg 98%
05:00 +2°C° 0.1 mm 3 mps 743 mmHg 98%
06:00 +2°C° 0.1 mm 3 mps 743 mmHg 98%
07:00 +2°C° 0.1 mm 3 mps 744 mmHg 98%
08:00 +2°C° 0.3 mm 3 mps 744 mmHg 98%
09:00 +2°C° 0.3 mm 3 mps 744 mmHg 98%
10:00 +3°C° 0.3 mm 3 mps 744 mmHg 98%
11:00 +3°C° 0.2 mm 3 mps 744 mmHg 97%
12:00 +3°C° 0.2 mm 3 mps 744 mmHg 97%
13:00 +4°C° 0.2 mm 2 mps 744 mmHg 97%
14:00 +5°C° 0.1 mm 2 mps 744 mmHg 97%
15:00 +5°C° 0.1 mm 2 mps 744 mmHg 97%
16:00 +5°C° 0.1 mm 2 mps 744 mmHg 97%
17:00 +5°C° 0 mm 2 mps 744 mmHg 98%
18:00 +5°C° 0 mm 2 mps 744 mmHg 98%
19:00 +5°C° 0 mm 2 mps 744 mmHg 98%
20:00 +5°C° 0.1 mm 2 mps 744 mmHg 98%
21:00 +6°C° 0.1 mm 1 mps 744 mmHg 98%
22:00 +6°C° 0.1 mm 1 mps 744 mmHg 98%
23:00 +6°C° 0 mm 1 mps 744 mmHg 98%

Day after tomorrow, 18 April, Sunday

Time Temperature Precipitation Wind Pressure Humidity
00:00 +5°C° 0 mm 1 mps 744 mmHg 98%
01:00 +5°C° 0 mm 1 mps 744 mmHg 98%
02:00 +5°C° 0 mm 1 mps 744 mmHg 98%
03:00 +5°C° 0 mm 1 mps 744 mmHg 98%
04:00 +5°C° 0 mm 1 mps 744 mmHg 98%
05:00 +5°C° 0 mm 2 mps 744 mmHg 94%
06:00 +5°C° 0 mm 2 mps 744 mmHg 90%
07:00 +5°C° 0 mm 2 mps 744 mmHg 87%
08:00 +7°C° 0 mm 2 mps 744 mmHg 80%
09:00 +8°C° 0 mm 2 mps 744 mmHg 73%
10:00 +9°C° 0 mm 2 mps 744 mmHg 66%
11:00 +10°C° 0 mm 2 mps 744 mmHg 65%
12:00 +10°C° 0 mm 3 mps 744 mmHg 63%
13:00 +11°C° 0 mm 3 mps 744 mmHg 62%
14:00 +11°C° 0 mm 3 mps 744 mmHg 66%
15:00 +12°C° 0 mm 2 mps 743 mmHg 69%
16:00 +12°C° 0 mm 2 mps 743 mmHg 73%
17:00 +10°C° 0 mm 2 mps 743 mmHg 76%
18:00 +10°C° 0 mm 2 mps 743 mmHg 80%
19:00 +9°C° 0 mm 2 mps 743 mmHg 83%
20:00 +9°C° 0.1 mm 2 mps 743 mmHg 86%
21:00 +8°C° 0.1 mm 2 mps 743 mmHg 90%
22:00 +8°C° 0.1 mm 2 mps 743 mmHg 93%
23:00 +8°C° 0 mm 2 mps 743 mmHg 92%

19 April, Monday

Time Temperature Precipitation Wind Pressure Humidity
00:00 +7°C° 0 mm 2 mps 743 mmHg 92%
01:00 +7°C° 0 mm 3 mps 743 mmHg 91%
02:00 +7°C° 0 mm 3 mps 743 mmHg 90%
03:00 +7°C° 0 mm 3 mps 743 mmHg 89%
04:00 +7°C° 0 mm 3 mps 743 mmHg 88%
05:00 +7°C° 0 mm 3 mps 743 mmHg 87%
06:00 +7°C° 0 mm 3 mps 743 mmHg 86%
07:00 +7°C° 0 mm 4 mps 743 mmHg 85%
08:00 +8°C° 0 mm 4 mps 742 mmHg 77%
09:00 +9°C° 0 mm 5 mps 742 mmHg 68%
10:00 +10°C° 0 mm 6 mps 742 mmHg 59%
11:00 +10°C° 0 mm 5 mps 742 mmHg 59%
12:00 +10°C° 0 mm 5 mps 742 mmHg 59%
13:00 +10°C° 0 mm 5 mps 742 mmHg 59%
14:00 +11°C° 0 mm 4 mps 742 mmHg 60%
15:00 +10°C° 0 mm 4 mps 741 mmHg 62%
16:00 +10°C° 0 mm 3 mps 741 mmHg 63%
17:00 +10°C° 0 mm 3 mps 741 mmHg 66%
18:00 +9°C° 0 mm 2 mps 741 mmHg 70%
19:00 +9°C° 0 mm 2 mps 741 mmHg 73%
20:00 +8°C° 0.1 mm 2 mps 741 mmHg 77%
21:00 +7°C° 0.1 mm 2 mps 741 mmHg 81%
22:00 +7°C° 0.1 mm 2 mps 741 mmHg 85%
23:00 +6°C° 0 mm 2 mps 740 mmHg 86%

20 April, Tuesday

Time Temperature Precipitation Wind Pressure Humidity
00:00 +6°C° 0 mm 2 mps 740 mmHg 88%
01:00 +5°C° 0 mm 2 mps 740 mmHg 90%
02:00 +5°C° 0 mm 2 mps 740 mmHg 90%
03:00 +5°C° 0 mm 2 mps 740 mmHg 90%
04:00 +5°C° 0 mm 2 mps 739 mmHg 91%
05:00 +5°C° 0.1 mm 2 mps 739 mmHg 89%
06:00 +6°C° 0.1 mm 2 mps 739 mmHg 88%
07:00 +5°C° 0.1 mm 3 mps 739 mmHg 87%
08:00 +8°C° 0.3 mm 3 mps 739 mmHg 79%
09:00 +8°C° 0.3 mm 4 mps 739 mmHg 72%
10:00 +10°C° 0.3 mm 4 mps 739 mmHg 64%
11:00 +11°C° 0.2 mm 4 mps 738 mmHg 61%
12:00 +11°C° 0.2 mm 4 mps 738 mmHg 58%
13:00 +12°C° 0.2 mm 4 mps 738 mmHg 55%
14:00 +12°C° 0.2 mm 4 mps 737 mmHg 55%
15:00 +12°C° 0.2 mm 4 mps 737 mmHg 56%
16:00 +12°C° 0.2 mm 4 mps 737 mmHg 57%
17:00 +11°C° 0.1 mm 4 mps 737 mmHg 63%
18:00 +9°C° 0.1 mm 3 mps 737 mmHg 69%
19:00 +8°C° 0.1 mm 2 mps 737 mmHg 75%
20:00 +7°C° 0 mm 2 mps 737 mmHg 78%
21:00 +7°C° 0 mm 2 mps 737 mmHg 81%
22:00 +6°C° 0 mm 2 mps 737 mmHg 83%
23:00 +6°C° 0 mm 2 mps 737 mmHg 84%

21 April, Wednesday

Time Temperature Precipitation Wind Pressure Humidity
00:00 +5°C° 0 mm 2 mps 737 mmHg 85%
01:00 +5°C° 0 mm 2 mps 737 mmHg 86%
02:00 +4°C° 0 mm 3 mps 737 mmHg 87%
03:00 +4°C° 0 mm 3 mps 737 mmHg 88%
04:00 +4°C° 0 mm 3 mps 737 mmHg 90%
05:00 +4°C° 0 mm 3 mps 737 mmHg 87%
06:00 +4°C° 0 mm 4 mps 737 mmHg 83%
07:00 +5°C° 0 mm 4 mps 737 mmHg 80%
08:00 +6°C° 0 mm 4 mps 738 mmHg 72%
09:00 +7°C° 0 mm 5 mps 738 mmHg 65%
10:00 +9°C° 0 mm 5 mps 738 mmHg 57%
11:00 +9°C° 0 mm 5 mps 738 mmHg 57%
12:00 +9°C° 0 mm 5 mps 738 mmHg 56%
13:00 +10°C° 0 mm 4 mps 739 mmHg 56%
14:00 +10°C° 0 mm 4 mps 739 mmHg 56%
15:00 +11°C° 0 mm 4 mps 739 mmHg 56%
16:00 +11°C° 0 mm 4 mps 739 mmHg 57%
17:00 +10°C° 0 mm 4 mps 739 mmHg 63%
18:00 +9°C° 0 mm 3 mps 739 mmHg 69%
19:00 +8°C° 0 mm 2 mps 739 mmHg 74%
20:00 +7°C° 0 mm 2 mps 739 mmHg 76%
21:00 +7°C° 0 mm 2 mps 739 mmHg 78%
22:00 +6°C° 0 mm 2 mps 740 mmHg 79%
23:00 +6°C° 0 mm 2 mps 740 mmHg 82%
Show more